Regional Weather Roundup
Issued by NWS

Home | Current Version | Previous Version | Graphics & Text | Print | Product List | Glossary On
Versions: 1 2 3 4 5 6 7 8 9 10 11 12 13 14 15 16 17 18 19 20 21 22 23 24 25 26 27 28 29 30 31 32 33 34 35 36 37 38 39 40 41 42 43 44 45 46 47 48 49 50
000
ASUS44 KMEG 260010
RWRTN
TENNESSEE HOURLY STATE WEATHER ROUNDUP
NATIONAL WEATHER SERVICE MEMPHIS TN
700 PM CDT MON MAY 25 2015

TNZ002-004-019-021-049-052-054-088>092-260100-
WEST TENNESSEE

CITY           SKY/WX    TMP DP  RH WIND       PRES   REMARKS
MEMPHIS INTL   PTSUNNY   81  69  67 SE14      29.98R
NWS MEMPHIS      N/A     79 N/A N/A MISG        N/A
JACKSON        PTSUNNY   75  68  78 S9        30.03S
DYERSBURG      PTSUNNY   77  57  50 SE10      30.02R
PARIS          CLOUDY    72  66  83 SE8       30.05S
LEXINGTON      SUNNY     72  66  83 S5        30.05R
$$

TNZ008-025-027-028-033-062-065-066-260100-
NORTH MIDDLE TENNESSEE

CITY           SKY/WX    TMP DP  RH WIND       PRES   REMARKS
NASHVILLE      CLOUDY    71  67  87 SE8       30.11F
CLARKSVILLE    CLOUDY    73  68  84 SE5       30.06F
SMYRNA         CLOUDY    71  68  90 S7        30.11F
COOKEVILLE     CLEAR     68  66  94 W3        30.15F
CROSSVILLE     CLOUDY    67  64  90 S5        30.21S
$$

TNZ061-075-076-078-094-096-097-260100-
SOUTH MIDDLE TENNESSEE

CITY           SKY/WX    TMP DP  RH WIND       PRES   REMARKS
FAYETTEVILLE   CLEAR    N/A N/A N/A MISG      30.13F
TULLAHOMA      CLEAR     68  66  94 CALM      30.15F
WINCHESTER     CLEAR     70  66  88 SE7       30.15F
MCMINNVILLE    CLEAR     68  68 100 CALM      30.15F
COLUMBIA       CLEAR     72  68  88 SE7       30.08F
SHELBYVILLE    CLEAR     70  68  94 S6        30.13F
$$

TNZ017-018-042-046-047-260100-
NORTHEAST TENNESSEE

CITY           SKY/WX    TMP DP  RH WIND       PRES   REMARKS
TRI CITIES     MOCLDY    83  57  41 W3        30.20R
ELIZABETHTON   CLOUDY    77  57  50 E5        30.22R
$$

TNZ012-013-036-069-073-074-260100-
CENTRAL EAST TENNESSEE

CITY           SKY/WX    TMP DP  RH WIND       PRES   REMARKS
KNOXVILLE      CLOUDY    80  60  50 SW7       30.16F
OAK RIDGE      CLOUDY    80  63  55 W8        30.19R
GATLINBURG     MOCLDY    81  61  50 CALM      30.16S
MORRISTOWN     PTCLDY    82  63  51 W3        30.19S
$$

TNZ083-085-099-260100-
SOUTHEAST TENNESSEE

CITY           SKY/WX    TMP DP  RH WIND       PRES   REMARKS
CHATTANOOGA    LGT RAIN  68  67  96 SE5       30.20R FOG
$$

SKY/WX REPORTED AS FAIR MEANS FEW OR NO CLOUDS BELOW
12 THOUSAND FEET.




USA.gov is the U.S. government's official web portal to all federal, state and local government web resources and services.